,,PA_Meas_PMT16A,,PR_Meas_QMR101_102,,RH_Meas_QMH101,,SR_Meas_QMS101,,TA_Meas_QMH101,,GenWind,,GenWind,
time,status,PA,status,PR,status,RH,status,SR,status,TA,status,DirAvg,status,SpdAvg,
2012-03-20, 00:00:05,VALID,919.317,VALID,0,VALID,92.7312,VALID,0,VALID,19.9938,VALID,10,VALID,0,
2012-03-20, 00:01:05,VALID,919.242,VALID,0,VALID,92.6093,VALID,0,VALID,19.9563,VALID,10,VALID,0.532031,
2012-03-20, 00:02:05,VALID,919.29,VALID,0,VALID,92.9981,VALID,0,VALID,19.9353,VALID,10,VALID,0.411719,
2012-03-20, 00:03:04,VALID,919.265,VALID,0,VALID,93.3716,VALID,0,VALID,19.9548,VALID,10,VALID,0.302344,
2012-03-20, 00:04:04,VALID,919.29,VALID,0,VALID,93.6537,VALID,0,VALID,19.9758,VALID,10,VALID,0.389062,
2012-03-20, 00:05:04,VALID,919.298,VALID,0,VALID,93.1886,VALID,0,VALID,19.8978,VALID,10,VALID,0.466797,
2012-03-20, 00:06:04,VALID,919.283,VALID,0,VALID,93.3564,VALID,0,VALID,19.8993,VALID,10,VALID,0.553125,
2012-03-20, 00:07:04,VALID,919.289,VALID,0,VALID,93.2496,VALID,0,VALID,19.8378,VALID,11,VALID,0.58125,
2012-03-20, 00:08:04,VALID,919.206,VALID,0,VALID,93.3182,VALID,0,VALID,19.8003,VALID,11,VALID,0.808984,
2012-03-20, 00:09:04,VALID,919.214,VALID,0,VALID,93.5774,VALID,0,VALID,19.7583,VALID,10,VALID,0.483594,
2012-03-20, 00:10:04,VALID,919.185,VALID,0,VALID,93.9205,VALID,0,VALID,19.7388,VALID,10,VALID,1.00039,
2012-03-20, 00:11:04,VALID,919.18,VALID,0,VALID,93.7299,VALID,0.107441,VALID,19.7193,VALID,10,VALID,0.597656,
2012-03-20, 00:12:04,VALID,919.158,VALID,0,VALID,94.0196,VALID,0,VALID,19.7193,VALID,10,VALID,0.764453,
2012-03-20, 00:13:04,VALID,919.14,VALID,0,VALID,94.2102,VALID,0,VALID,19.7193,VALID,10,VALID,0.826563,
2012-03-20, 00:14:04,VALID,919.13,VALID,0,VALID,94.3626,VALID,0,VALID,19.7598,VALID,10,VALID,0.391406,
2012-03-20, 00:15:04,VALID,919.111,VALID,0,VALID,94.4465,VALID,0.107441,VALID,19.7778,VALID,10,VALID,0.382813,
2012-03-20, 00:16:04,VALID,919.062,VALID,0,VALID,94.1339,VALID,0,VALID,19.7583,VALID,10,VALID,0.364844,
2012-03-20, 00:17:04,VALID,919.05,VALID,0,VALID,94.1416,VALID,0,VALID,19.7973,VALID,10,VALID,0.560938,
2012-03-20, 00:18:04,VALID,919.033,VALID,0,VALID,93.9815,VALID,0,VALID,19.7988,VALID,10,VALID,0.548047,
2012-03-20, 00:19:04,VALID,918.986,VALID,0,VALID,93.5393,VALID,0.107441,VALID,19.7388,VALID,10,VALID,0.676562,
2012-03-20, 00:20:04,VALID,918.966,VALID,0,VALID,93.8976,VALID,0,VALID,19.7598,VALID,10,VALID,0.877344,
2012-03-20, 00:21:04,VALID,918.959,VALID,0,VALID,93.4631,VALID,0,VALID,19.6998,VALID,10,VALID,0.733594,
2012-03-20, 00:22:04,VALID,918.921,VALID,0,VALID,93.8366,VALID,0,VALID,19.7208,VALID,10,VALID,0.967969,
2012-03-20, 00:23:04,VALID,918.872,VALID,0,VALID,93.829,VALID,0,VALID,19.7013,VALID,10,VALID,1.04023,
2012-03-20, 00:24:04,VALID,918.874,VALID,0,VALID,94.0043,VALID,0,VALID,19.6623,VALID,10,VALID,1.16484,
2012-03-20, 00:25:04,VALID,918.87,VALID,0,VALID,94.1416,VALID,0,VALID,19.6218,VALID,10,VALID,1.49297,
2012-03-20, 00:26:04,VALID,918.855,VALID,0,VALID,94.477,VALID,0,VALID,19.6608,VALID,23,VALID,1.54219,
2012-03-20, 00:27:04,VALID,918.819,VALID,0,VALID,94.538,VALID,0,VALID,19.6998,VALID,8,VALID,1.40898,
2012-03-20, 00:28:04,VALID,918.814,VALID,0,VALID,94.4999,VALID,0,VALID,19.7388,VALID,8,VALID,1.18828,
2012-03-20, 00:29:04,VALID,918.822,VALID,0,VALID,94.477,VALID,0,VALID,19.7778,VALID,8,VALID,1.11445,
2012-03-20, 00:30:04,VALID,918.804,VALID,0,VALID,94.4846,VALID,0,VALID,19.8378,VALID,8,VALID,0.798828,
2012-03-20, 00:31:04,VALID,918.802,VALID,0,VALID,94.4008,VALID,0,VALID,19.8363,VALID,8,VALID,0.754297,
2012-03-20, 00:32:04,VALID,918.844,VALID,0,VALID,94.4313,VALID,0,VALID,19.8753,VALID,8,VALID,0.857813,
2012-03-20, 00:33:04,VALID,918.838,VALID,0,VALID,94.2864,VALID,0,VALID,19.8948,VALID,8,VALID,0.584766,
2012-03-20, 00:34:04,VALID,918.837,VALID,0,VALID,94.1721,VALID,0,VALID,19.9353,VALID,8,VALID,0.726172,
2012-03-20, 00:35:04,VALID,918.834,VALID,0,VALID,94.0501,VALID,0,VALID,19.9548,VALID,8,VALID,0.792969,
2012-03-20, 00:36:04,VALID,918.809,VALID,0,VALID,93.8976,VALID,0,VALID,19.9548,VALID,8,VALID,0.522266,
2012-03-20, 00:37:04,VALID,918.795,VALID,0,VALID,93.768,VALID,0,VALID,19.9338,VALID,8,VALID,0.665625,
2012-03-20, 00:38:04,VALID,918.798,VALID,0,VALID,93.6308,VALID,0,VALID,19.9743,VALID,8,VALID,0.957031,
2012-03-20, 00:39:04,VALID,918.808,VALID,0,VALID,93.5698,VALID,0.107441,VALID,19.9548,VALID,8,VALID,0.846484,
2012-03-20, 00:40:04,VALID,918.797,VALID,0,VALID,93.5546,VALID,0,VALID,19.9353,VALID,8,VALID,0.885547,
2012-03-20, 00:41:04,VALID,918.812,VALID,0,VALID,93.5393,VALID,0,VALID,19.9353,VALID,8,VALID,0.595312,
2012-03-20, 00:42:04,VALID,918.765,VALID,0,VALID,93.4631,VALID,0,VALID,19.9548,VALID,8,VALID,0.485938,
2012-03-20, 00:43:04,VALID,918.727,VALID,0,VALID,93.3411,VALID,0.107441,VALID,19.9338,VALID,8,VALID,0.691797,
2012-03-20, 00:44:04,VALID,918.722,VALID,0,VALID,93.2268,VALID,0,VALID,19.9743,VALID,8,VALID,0.660547,
2012-03-20, 00:45:04,VALID,918.704,VALID,0,VALID,92.9066,VALID,0,VALID,19.9143,VALID,8,VALID,0.794141,
2012-03-20, 00:46:04,VALID,918.669,VALID,0,VALID,92.8989,VALID,0,VALID,19.8753,VALID,8,VALID,0.699609,
2012-03-20, 00:47:04,VALID,918.664,VALID,0,VALID,93.3106,VALID,0,VALID,19.8753,VALID,8,VALID,0.948438,
2012-03-20, 00:48:04,VALID,918.615,VALID,0,VALID,93.3868,VALID,0.107441,VALID,19.8363,VALID,8,VALID,0.857422,
2012-03-20, 00:49:04,VALID,918.64,VALID,0,VALID,93.5088,VALID,0.107441,VALID,19.8168,VALID,8,VALID,0.649609,
2012-03-20, 00:50:04,VALID,918.652,VALID,0,VALID,93.5774,VALID,0,VALID,19.7973,VALID,8,VALID,0.372266,
2012-03-20, 00:51:04,VALID,918.658,VALID,0,VALID,93.6689,VALID,0,VALID,19.8168,VALID,8,VALID,0.261328,
2012-03-20, 00:52:04,VALID,918.666,VALID,0,VALID,93.6765,VALID,0,VALID,19.8378,VALID,8,VALID,0.103125,
2012-03-20, 00:53:04,VALID,918.635,VALID,0,VALID,93.5851,VALID,0,VALID,19.8573,VALID,8,VALID,0,
2012-03-20, 00:54:04,VALID,918.629,VALID,0,VALID,93.4936,VALID,0.107441,VALID,19.8753,VALID,8,VALID,0.00585938,
2012-03-20, 00:55:04,VALID,918.623,VALID,0,VALID,93.5698,VALID,0.107441,VALID,19.8753,VALID,8,VALID,0.278906,
2012-03-20, 00:56:04,VALID,918.572,VALID,0,VALID,93.6384,VALID,0,VALID,19.8753,VALID,8,VALID,0,
2012-03-20, 00:57:04,VALID,918.521,VALID,0,VALID,93.6918,VALID,0.107441,VALID,19.8768,VALID,8,VALID,0,
2012-03-20, 00:58:04,VALID,918.49,VALID,0,VALID,93.6079,VALID,0,VALID,19.8768,VALID,8,VALID,0.291797,
2012-03-20, 00:59:04,VALID,918.498,VALID,0,VALID,93.4859,VALID,0,VALID,19.8558,VALID,8,VALID,0.221094,
2012-03-20, 01:00:04,VALID,918.515,VALID,0,VALID,93.2649,VALID,0,VALID,19.8573,VALID,8,VALID,0.295312,
2012-03-20, 01:01:04,VALID,918.54,VALID,0,VALID,93.1963,VALID,0,VALID,19.8573,VALID,8,VALID,0.197656,
2012-03-20, 01:02:04,VALID,918.545,VALID,0,VALID,93.2191,VALID,0,VALID,19.8573,VALID,8,VALID,0.204297,
2012-03-20, 01:03:04,VALID,918.547,VALID,0,VALID,93.1505,VALID,0,VALID,19.8573,VALID,8,VALID,0.210938,
2012-03-20, 01:04:04,VALID,918.572,VALID,0,VALID,93.2039,VALID,0,VALID,19.8378,VALID,8,VALID,0.633203,
2012-03-20, 01:05:04,VALID,918.547,VALID,0,VALID,93.3868,VALID,0,VALID,19.8378,VALID,8,VALID,0.337891,
2012-03-20, 01:06:04,VALID,918.553,VALID,0,VALID,93.5317,VALID,0,VALID,19.7973,VALID,8,VALID,0.0820313,
2012-03-20, 01:07:04,VALID,918.503,VALID,0,VALID,93.5622,VALID,0,VALID,19.8168,VALID,8,VALID,0.292188,
2012-03-20, 01:08:04,VALID,918.488,VALID,0,VALID,93.5546,VALID,0,VALID,19.8153,VALID,8,VALID,0,
2012-03-20, 01:09:04,VALID,918.416,VALID,0,VALID,93.3487,VALID,0,VALID,19.8963,VALID,8,VALID,0.265234,
2012-03-20, 01:10:04,VALID,918.425,VALID,0,VALID,93.1429,VALID,0,VALID,19.9548,VALID,8,VALID,0,
2012-03-20, 01:11:04,VALID,918.364,VALID,0,VALID,92.9676,VALID,0,VALID,19.9938,VALID,8,VALID,0,
2012-03-20, 01:12:04,VALID,918.328,VALID,0,VALID,92.655,VALID,0.107441,VALID,20.0118,VALID,8,VALID,0,
2012-03-20, 01:13:04,VALID,918.307,VALID,0,VALID,92.0375,VALID,0,VALID,19.9938,VALID,8,VALID,0,
2012-03-20, 01:14:04,VALID,918.285,VALID,0,VALID,92.4339,VALID,0,VALID,19.9938,VALID,8,VALID,0.225781,
2012-03-20, 01:15:04,VALID,918.24,VALID,0,VALID,91.6182,VALID,0,VALID,19.9743,VALID,8,VALID,0.242578,
2012-03-20, 01:16:04,VALID,918.233,VALID,0,VALID,91.8317,VALID,0,VALID,19.8963,VALID,8,VALID,0.464844,
2012-03-20, 01:17:04,VALID,918.197,VALID,0,VALID,92.2891,VALID,0,VALID,19.7973,VALID,8,VALID,0.526172,
2012-03-20, 01:18:04,VALID,918.187,VALID,0,VALID,92.3806,VALID,0,VALID,19.6998,VALID,8,VALID,0.420312,
2012-03-20, 01:19:04,VALID,918.231,VALID,0,VALID,93.0285,VALID,0,VALID,19.6818,VALID,8,VALID,0.476563,
2012-03-20, 01:20:04,VALID,918.24,VALID,0,VALID,93.2649,VALID,0,VALID,19.6233,VALID,8,VALID,0.28125,
2012-03-20, 01:21:04,VALID,918.253,VALID,0,VALID,93.6003,VALID,0,VALID,19.6233,VALID,8,VALID,0.151953,
2012-03-20, 01:22:04,VALID,918.27,VALID,0,VALID,93.9052,VALID,0,VALID,19.6233,VALID,8,VALID,0,
2012-03-20, 01:23:04,VALID,918.288,VALID,0,VALID,93.9738,VALID,0,VALID,19.6233,VALID,8,VALID,0,
2012-03-20, 01:24:04,VALID,918.304,VALID,0,VALID,94.1187,VALID,0,VALID,19.6233,VALID,8,VALID,0,
2012-03-20, 01:25:04,VALID,918.32,VALID,0,VALID,94.2559,VALID,0,VALID,19.6623,VALID,8,VALID,0,
2012-03-20, 01:26:04,VALID,918.277,VALID,0,VALID,94.1416,VALID,0,VALID,19.6818,VALID,8,VALID,0,
2012-03-20, 01:27:04,VALID,918.247,VALID,0,VALID,94.0577,VALID,0,VALID,19.7013,VALID,8,VALID,0,
2012-03-20, 01:28:04,VALID,918.24,VALID,0,VALID,94.0043,VALID,0,VALID,19.7403,VALID,8,VALID,0,
2012-03-20, 01:29:04,VALID,918.208,VALID,0,VALID,93.6537,VALID,0.107441,VALID,19.7598,VALID,8,VALID,0,
2012-03-20, 01:30:04,VALID,918.218,VALID,0,VALID,92.3424,VALID,0,VALID,19.6623,VALID,8,VALID,0,
2012-03-20, 01:31:04,VALID,918.21,VALID,0,VALID,92.1595,VALID,0,VALID,19.5438,VALID,8,VALID,0,
2012-03-20, 01:32:04,VALID,918.206,VALID,0,VALID,92.6321,VALID,0,VALID,19.5258,VALID,8,VALID,0.394141,
2012-03-20, 01:33:04,VALID,918.19,VALID,0,VALID,93.5698,VALID,0,VALID,19.5258,VALID,8,VALID,0.571094,
2012-03-20, 01:34:04,VALID,918.172,VALID,0,VALID,94.0196,VALID,0,VALID,19.5048,VALID,8,VALID,0.597656,
2012-03-20, 01:35:04,VALID,918.101,VALID,0,VALID,94.0272,VALID,0,VALID,19.5453,VALID,8,VALID,0.214062,
2012-03-20, 01:36:04,VALID,918.085,VALID,0,VALID,93.7528,VALID,0,VALID,19.5048,VALID,8,VALID,0.59375,
2012-03-20, 01:37:04,VALID,918.015,VALID,0,VALID,93.8519,VALID,0,VALID,19.5063,VALID,8,VALID,0.775781,
2012-03-20, 01:38:04,VALID,918.048,VALID,0,VALID,94.2178,VALID,0,VALID,19.5048,VALID,8,VALID,1.03633,
2012-03-20, 01:39:04,VALID,918.026,VALID,0,VALID,94.3779,VALID,0,VALID,19.5843,VALID,8,VALID,1.25664,
2012-03-20, 01:40:04,VALID,917.964,VALID,0,VALID,94.233,VALID,0,VALID,19.6428,VALID,8,VALID,1.12539,
2012-03-20, 01:41:04,VALID,917.979,VALID,0,VALID,94.1416,VALID,0,VALID,19.7028,VALID,8,VALID,0.759375,
2012-03-20, 01:42:04,VALID,917.986,VALID,0,VALID,93.9815,VALID,0,VALID,19.6998,VALID,8,VALID,0.650391,
2012-03-20, 01:43:04,VALID,917.993,VALID,0,VALID,93.7833,VALID,0,VALID,19.7403,VALID,8,VALID,0.752344,
2012-03-20, 01:44:04,VALID,917.971,VALID,0,VALID,93.7451,VALID,0,VALID,19.7793,VALID,8,VALID,0.560547,
2012-03-20, 01:45:04,VALID,917.95,VALID,0,VALID,93.8443,VALID,0,VALID,19.7988,VALID,8,VALID,0.491797,
2012-03-20, 01:46:04,VALID,917.943,VALID,0,VALID,93.8671,VALID,0,VALID,19.7973,VALID,8,VALID,0.523828,
2012-03-20, 01:47:04,VALID,917.907,VALID,0,VALID,93.8824,VALID,0,VALID,19.8378,VALID,8,VALID,0.0996094,
2012-03-20, 01:48:04,VALID,917.879,VALID,0,VALID,93.8824,VALID,0,VALID,19.7973,VALID,8,VALID,0,
2012-03-20, 01:49:04,VALID,917.904,VALID,0,VALID,93.9281,VALID,0,VALID,19.8363,VALID,9,VALID,0.341406,
2012-03-20, 01:50:04,VALID,917.867,VALID,0,VALID,93.8747,VALID,0,VALID,19.8573,VALID,9,VALID,0.148438,
2012-03-20, 01:51:04,VALID,917.894,VALID,0,VALID,93.6155,VALID,0,VALID,19.8183,VALID,8,VALID,0.280859,
2012-03-20, 01:52:04,VALID,917.853,VALID,0,VALID,93.8214,VALID,0,VALID,19.7988,VALID,8,VALID,0.516406,
2012-03-20, 01:53:04,VALID,917.824,VALID,0,VALID,93.8519,VALID,0,VALID,19.7598,VALID,8,VALID,0.780078,
2012-03-20, 01:54:04,VALID,917.873,VALID,0,VALID,94.073,VALID,0,VALID,19.7208,VALID,8,VALID,0.878906,
2012-03-20, 01:55:04,VALID,917.846,VALID,0,VALID,94.2483,VALID,0,VALID,19.6998,VALID,8,VALID,0.223438,
2012-03-20, 01:56:04,VALID,917.857,VALID,0,VALID,94.3169,VALID,0,VALID,19.7193,VALID,8,VALID,0,
2012-03-20, 01:57:04,VALID,917.826,VALID,0,VALID,94.3474,VALID,0,VALID,19.7403,VALID,8,VALID,0,
2012-03-20, 01:58:04,VALID,917.792,VALID,0,VALID,94.3855,VALID,0,VALID,19.7793,VALID,8,VALID,0,
2012-03-20, 01:59:04,VALID,917.754,VALID,0,VALID,94.4008,VALID,0,VALID,19.7778,VALID,8,VALID,0,
2012-03-20, 02:00:04,VALID,917.716,VALID,0,VALID,94.1111,VALID,0,VALID,19.7583,VALID,8,VALID,0,
2012-03-20, 02:01:04,VALID,917.705,VALID,0,VALID,94.073,VALID,0.107441,VALID,19.7388,VALID,8,VALID,0.0742188,
2012-03-20, 02:02:04,VALID,917.658,VALID,0,VALID,93.7833,VALID,0,VALID,19.7193,VALID,8,VALID,0.315234,
2012-03-20, 02:03:04,VALID,917.681,VALID,0,VALID,93.4783,VALID,0.107441,VALID,19.6608,VALID,8,VALID,0.210938,
2012-03-20, 02:04:04,VALID,917.695,VALID,0,VALID,93.5622,VALID,0,VALID,19.6413,VALID,9,VALID,0.167187,
2012-03-20, 02:05:04,VALID,917.695,VALID,0,VALID,93.6765,VALID,0.107441,VALID,19.6623,VALID,8,VALID,0,
2012-03-20, 02:06:04,VALID,917.68,VALID,0,VALID,93.8061,VALID,0,VALID,19.6623,VALID,9,VALID,0,
2012-03-20, 02:07:04,VALID,917.719,VALID,0,VALID,93.7756,VALID,0,VALID,19.6428,VALID,8,VALID,0,
2012-03-20, 02:08:04,VALID,917.715,VALID,0,VALID,93.6918,VALID,0,VALID,19.6428,VALID,8,VALID,0,
2012-03-20, 02:09:04,VALID,917.739,VALID,0,VALID,93.5622,VALID,0,VALID,19.6233,VALID,8,VALID,0,
2012-03-20, 02:10:04,VALID,917.685,VALID,0,VALID,93.4936,VALID,0,VALID,19.6038,VALID,8,VALID,0.672656,
2012-03-20, 02:11:04,VALID,917.636,VALID,0,VALID,93.4326,VALID,0,VALID,19.5453,VALID,9,VALID,0.913672,
2012-03-20, 02:12:04,VALID,917.639,VALID,0,VALID,93.89,VALID,0,VALID,19.5048,VALID,8,VALID,0.996094,
2012-03-20, 02:13:04,VALID,917.657,VALID,0,VALID,94.1034,VALID,0,VALID,19.5048,VALID,8,VALID,0.684766,
2012-03-20, 02:14:04,VALID,917.661,VALID,0,VALID,94.0958,VALID,0,VALID,19.5243,VALID,8,VALID,0.606641,
2012-03-20, 02:15:04,VALID,917.642,VALID,0,VALID,94.0196,VALID,0,VALID,19.5648,VALID,9,VALID,0.676172,
2012-03-20, 02:16:04,VALID,917.675,VALID,0,VALID,94.0196,VALID,0,VALID,19.5633,VALID,9,VALID,0.392578,
2012-03-20, 02:17:04,VALID,917.642,VALID,0,VALID,93.8976,VALID,0,VALID,19.5843,VALID,8,VALID,0,
2012-03-20, 02:18:04,VALID,917.616,VALID,0,VALID,93.8824,VALID,0,VALID,19.5828,VALID,9,VALID,0,
2012-03-20, 02:19:04,VALID,917.618,VALID,0,VALID,93.8595,VALID,0,VALID,19.6233,VALID,9,VALID,0,
2012-03-20, 02:20:04,VALID,917.66,VALID,0,VALID,93.7985,VALID,0,VALID,19.6218,VALID,8,VALID,0.260156,
2012-03-20, 02:21:04,VALID,917.699,VALID,0,VALID,93.6689,VALID,0,VALID,19.6608,VALID,9,VALID,0.330859,
2012-03-20, 02:22:04,VALID,917.661,VALID,0,VALID,93.6918,VALID,0,VALID,19.7013,VALID,8,VALID,0.587891,
2012-03-20, 02:23:04,VALID,917.704,VALID,0,VALID,93.6613,VALID,0,VALID,19.7208,VALID,9,VALID,0,
2012-03-20, 02:24:04,VALID,917.669,VALID,0,VALID,93.6384,VALID,0,VALID,19.7793,VALID,9,VALID,0,
2012-03-20, 02:25:04,VALID,917.618,VALID,0,VALID,93.646,VALID,0,VALID,19.7988,VALID,9,VALID,0,
2012-03-20, 02:26:04,VALID,917.599,VALID,0,VALID,93.5774,VALID,0,VALID,19.8573,VALID,8,VALID,0,
2012-03-20, 02:27:04,VALID,917.602,VALID,0,VALID,93.4326,VALID,0,VALID,19.8963,VALID,8,VALID,0.0832031,
2012-03-20, 02:28:04,VALID,917.583,VALID,0,VALID,93.2649,VALID,0,VALID,19.9353,VALID,9,VALID,0.194922,
2012-03-20, 02:29:04,VALID,917.609,VALID,0,VALID,93.12,VALID,0,VALID,19.9158,VALID,8,VALID,0.451172,
2012-03-20, 02:30:04,VALID,917.627,VALID,0,VALID,93.1505,VALID,0,VALID,19.8753,VALID,8,VALID,0.283203,
2012-03-20, 02:31:04,VALID,917.584,VALID,0,VALID,93.2344,VALID,0,VALID,19.9173,VALID,9,VALID,0,
2012-03-20, 02:32:04,VALID,917.617,VALID,0,VALID,93.303,VALID,0,VALID,19.8948,VALID,8,VALID,0.034375,
2012-03-20, 02:33:04,VALID,917.571,VALID,0,VALID,93.3411,VALID,0,VALID,19.8948,VALID,9,VALID,0,
2012-03-20, 02:34:04,VALID,917.536,VALID,0,VALID,93.3106,VALID,0,VALID,19.9158,VALID,9,VALID,0.0480469,
2012-03-20, 02:35:04,VALID,917.497,VALID,0,VALID,93.2496,VALID,0,VALID,19.8963,VALID,8,VALID,0.308594,
2012-03-20, 02:36:04,VALID,917.461,VALID,0,VALID,93.303,VALID,0,VALID,19.8768,VALID,9,VALID,0.0277344,
2012-03-20, 02:37:04,VALID,917.412,VALID,0,VALID,93.3106,VALID,0,VALID,19.8963,VALID,8,VALID,0,
2012-03-20, 02:38:04,VALID,917.403,VALID,0,VALID,93.2725,VALID,0,VALID,19.8963,VALID,8,VALID,0,
2012-03-20, 02:39:04,VALID,917.412,VALID,0,VALID,92.8151,VALID,0,VALID,19.8363,VALID,9,VALID,0,
2012-03-20, 02:40:04,VALID,917.397,VALID,0,VALID,92.5406,VALID,0,VALID,19.7973,VALID,8,VALID,0.009375,
2012-03-20, 02:41:04,VALID,917.387,VALID,0,VALID,92.5254,VALID,0,VALID,19.7598,VALID,9,VALID,0.221094,
2012-03-20, 02:42:04,VALID,917.407,VALID,0,VALID,92.655,VALID,0,VALID,19.6803,VALID,8,VALID,0,
2012-03-20, 02:43:04,VALID,917.338,VALID,0,VALID,92.7617,VALID,0,VALID,19.6623,VALID,9,VALID,0,
2012-03-20, 02:44:04,VALID,917.347,VALID,0,VALID,93.0362,VALID,0,VALID,19.5828,VALID,8,VALID,0,
2012-03-20, 02:45:04,VALID,917.328,VALID,0,VALID,93.425,VALID,0,VALID,19.5453,VALID,8,VALID,0,
2012-03-20, 02:46:04,VALID,917.348,VALID,0,VALID,93.6537,VALID,0,VALID,19.5258,VALID,8,VALID,0.559375,
2012-03-20, 02:47:04,VALID,917.353,VALID,0,VALID,93.7833,VALID,0,VALID,19.4673,VALID,8,VALID,0.688281,
2012-03-20, 02:48:04,VALID,917.378,VALID,0,VALID,94.1187,VALID,0,VALID,19.4283,VALID,8,VALID,0.801953,
2012-03-20, 02:49:04,VALID,917.357,VALID,0,VALID,94.2712,VALID,0,VALID,19.3684,VALID,8,VALID,0.615234,
2012-03-20, 02:50:04,VALID,917.343,VALID,0,VALID,94.4389,VALID,0,VALID,19.3893,VALID,9,VALID,0.399219,
2012-03-20, 02:51:04,VALID,917.335,VALID,0,VALID,94.5913,VALID,0,VALID,19.3698,VALID,8,VALID,0.329688,
2012-03-20, 02:52:04,VALID,917.333,VALID,0,VALID,94.8124,VALID,0,VALID,19.4088,VALID,9,VALID,0.0984375,
2012-03-20, 02:53:04,VALID,917.318,VALID,0,VALID,94.8658,VALID,0,VALID,19.4283,VALID,9,VALID,0,
2012-03-20, 02:54:04,VALID,917.301,VALID,0,VALID,94.8658,VALID,0,VALID,19.4478,VALID,8,VALID,0.302344,
2012-03-20, 02:55:04,VALID,917.262,VALID,0,VALID,94.8734,VALID,0,VALID,19.4658,VALID,9,VALID,0.00585938,
2012-03-20, 02:56:04,VALID,917.27,VALID,0,VALID,94.8887,VALID,0,VALID,19.5453,VALID,9,VALID,0.532422,
2012-03-20, 02:57:04,VALID,917.216,VALID,0,VALID,94.9573,VALID,0,VALID,19.5648,VALID,8,VALID,0.340234,
2012-03-20, 02:58:04,VALID,917.237,VALID,0,VALID,94.6447,VALID,0,VALID,19.6038,VALID,9,VALID,0.116016,
2012-03-20, 02:59:04,VALID,917.247,VALID,0,VALID,94.5304,VALID,0,VALID,19.5828,VALID,9,VALID,0,
2012-03-20, 03:00:04,VALID,917.277,VALID,0,VALID,94.5151,VALID,0,VALID,19.6023,VALID,9,VALID,0,
2012-03-20, 03:01:04,VALID,917.28,VALID,0,VALID,94.477,VALID,0,VALID,19.6233,VALID,9,VALID,0.00078125,
2012-03-20, 03:02:04,VALID,917.35,VALID,0,VALID,94.4999,VALID,0,VALID,19.6218,VALID,9,VALID,0.150391,
2012-03-20, 03:03:04,VALID,917.322,VALID,0,VALID,94.538,VALID,0,VALID,19.6623,VALID,9,VALID,0.311328,
2012-03-20, 03:04:04,VALID,917.329,VALID,0,VALID,94.5456,VALID,0,VALID,19.6608,VALID,9,VALID,0.16875,
2012-03-20, 03:05:04,VALID,917.312,VALID,0,VALID,94.5227,VALID,0,VALID,19.6998,VALID,8,VALID,0.183594,
2012-03-20, 03:06:04,VALID,917.29,VALID,0,VALID,94.477,VALID,0,VALID,19.7193,VALID,8,VALID,0,
2012-03-20, 03:07:04,VALID,917.265,VALID,0,VALID,94.5075,VALID,0,VALID,19.7598,VALID,8,VALID,0.125781,
2012-03-20, 03:08:04,VALID,917.24,VALID,0,VALID,94.3855,VALID,0,VALID,19.7598,VALID,8,VALID,0,
2012-03-20, 03:09:04,VALID,917.248,VALID,0,VALID,94.2178,VALID,0,VALID,19.7583,VALID,9,VALID,0,
2012-03-20, 03:10:04,VALID,917.219,VALID,0,VALID,94.2483,VALID,0.107441,VALID,19.7778,VALID,8,VALID,0,
2012-03-20, 03:11:04,VALID,917.196,VALID,0,VALID,94.0272,VALID,0,VALID,19.7973,VALID,9,VALID,0,
2012-03-20, 03:12:04,VALID,917.157,VALID,0,VALID,93.8366,VALID,0,VALID,19.7583,VALID,9,VALID,0.483203,
2012-03-20, 03:13:04,VALID,917.201,VALID,0,VALID,93.829,VALID,0,VALID,19.7388,VALID,8,VALID,0.152344,
2012-03-20, 03:14:04,VALID,917.159,VALID,0,VALID,93.829,VALID,0.107441,VALID,19.7598,VALID,9,VALID,0,
2012-03-20, 03:15:04,VALID,917.173,VALID,0,VALID,94.012,VALID,0,VALID,19.7598,VALID,9,VALID,0.479297,
2012-03-20, 03:16:04,VALID,917.144,VALID,0,VALID,93.9738,VALID,0,VALID,19.7598,VALID,8,VALID,0,
2012-03-20, 03:17:04,VALID,917.128,VALID,0,VALID,94.1034,VALID,0,VALID,19.7403,VALID,8,VALID,0,
2012-03-20, 03:18:04,VALID,917.151,VALID,0,VALID,94.2712,VALID,0,VALID,19.7583,VALID,9,VALID,0,
2012-03-20, 03:19:04,VALID,917.094,VALID,0,VALID,94.4084,VALID,0.107441,VALID,19.7973,VALID,9,VALID,0.25625,
2012-03-20, 03:20:04,VALID,917.101,VALID,0,VALID,94.0806,VALID,0,VALID,19.7973,VALID,8,VALID,0.256641,
2012-03-20, 03:21:04,VALID,917.126,VALID,0,VALID,93.9205,VALID,0,VALID,19.7583,VALID,8,VALID,0,
2012-03-20, 03:22:04,VALID,917.137,VALID,0,VALID,93.8976,VALID,0,VALID,19.7583,VALID,9,VALID,0,
2012-03-20, 03:23:04,VALID,917.134,VALID,0,VALID,93.9967,VALID,0,VALID,19.7388,VALID,9,VALID,0.176563,
2012-03-20, 03:24:04,VALID,917.107,VALID,0,VALID,94.1873,VALID,0,VALID,19.7583,VALID,8,VALID,0.352734,
2012-03-20, 03:25:04,VALID,917.11,VALID,0,VALID,94.2026,VALID,0,VALID,19.7793,VALID,8,VALID,0.214062,
2012-03-20, 03:26:04,VALID,917.097,VALID,0,VALID,94.4084,VALID,0,VALID,19.7988,VALID,9,VALID,0.327344,
2012-03-20, 03:27:04,VALID,917.109,VALID,0,VALID,94.477,VALID,0,VALID,19.7988,VALID,9,VALID,0.222266,
2012-03-20, 03:28:04,VALID,917.08,VALID,0,VALID,94.4617,VALID,0,VALID,19.7988,VALID,9,VALID,0,
2012-03-20, 03:29:04,VALID,917.107,VALID,0,VALID,94.538,VALID,0,VALID,19.7973,VALID,8,VALID,0,
2012-03-20, 03:30:04,VALID,917.074,VALID,0,VALID,94.6905,VALID,0,VALID,19.8363,VALID,9,VALID,0,
2012-03-20, 03:31:04,VALID,917.081,VALID,0,VALID,94.4694,VALID,0,VALID,19.8168,VALID,8,VALID,0.623438,
2012-03-20, 03:32:04,VALID,917.063,VALID,0,VALID,94.4617,VALID,0.107441,VALID,19.7973,VALID,8,VALID,0.467969,
2012-03-20, 03:33:04,VALID,917.042,VALID,0,VALID,94.5151,VALID,0.107441,VALID,19.7988,VALID,8,VALID,0.141406,
2012-03-20, 03:34:04,VALID,917.032,VALID,0,VALID,94.599,VALID,0,VALID,19.7973,VALID,9,VALID,0.511328,
2012-03-20, 03:35:04,VALID,917.076,VALID,0,VALID,94.3703,VALID,0,VALID,19.7793,VALID,9,VALID,0.494922,
2012-03-20, 03:36:04,VALID,917.069,VALID,0,VALID,94.3855,VALID,0,VALID,19.7388,VALID,9,VALID,0.266016,
2012-03-20, 03:37:04,VALID,917.105,VALID,0,VALID,94.4999,VALID,0.107441,VALID,19.7598,VALID,9,VALID,0,
2012-03-20, 03:38:04,VALID,917.114,VALID,0,VALID,94.5761,VALID,0,VALID,19.7193,VALID,9,VALID,0.473437,
2012-03-20, 03:39:04,VALID,917.073,VALID,0,VALID,94.7514,VALID,0,VALID,19.7598,VALID,59,VALID,0.464453,
2012-03-20, 03:40:04,VALID,917.054,VALID,0,VALID,94.8429,VALID,0,VALID,19.7583,VALID,59,VALID,0.305469,
2012-03-20, 03:41:04,VALID,917.019,VALID,0,VALID,95.0106,VALID,0.107441,VALID,19.7973,VALID,11,VALID,0.854297,
2012-03-20, 03:42:04,VALID,917.01,VALID,0,VALID,94.9573,VALID,0,VALID,19.7973,VALID,23,VALID,1.05117,
2012-03-20, 03:43:04,VALID,916.982,VALID,0,VALID,95.1326,VALID,0,VALID,19.8378,VALID,16,VALID,1.24492,
2012-03-20, 03:44:04,VALID,916.973,VALID,0,VALID,95.1555,VALID,0,VALID,19.8573,VALID,19,VALID,1.12188,
2012-03-20, 03:45:04,VALID,916.983,VALID,0,VALID,95.1707,VALID,0.107441,VALID,19.8558,VALID,19,VALID,1.13828,
2012-03-20, 03:46:04,VALID,917.029,VALID,0,VALID,95.1326,VALID,0,VALID,19.8753,VALID,20,VALID,0.876562,
2012-03-20, 03:47:04,VALID,917.106,VALID,0,VALID,95.1479,VALID,0,VALID,19.8753,VALID,342,VALID,0.910156,
2012-03-20, 03:48:04,VALID,917.117,VALID,0,VALID,95.125,VALID,0,VALID,19.8963,VALID,353,VALID,0.499609,
2012-03-20, 03:49:04,VALID,917.142,VALID,0,VALID,95.2088,VALID,0,VALID,19.8948,VALID,353,VALID,0.580859,
2012-03-20, 03:50:04,VALID,917.161,VALID,0,VALID,95.1783,VALID,0,VALID,19.8948,VALID,353,VALID,0.683594,